Location: Claremont
(33.9858°S, 18.4575°E)
Time: 21:09:25
(UTC+00:00)

OAO 3 Rocket - Pass Details

Date: 03 March 2021
Orbit: 629 x 682 km, 35.0° (Epoch: 21 April)

Event Time Altitude Azimuth Distance (km) Brightness Sun altitude
Rises 18:29:31 0° 262° (W) 2,985 8.3 -14.9°
Reaches altitude 10° 18:31:52 10° 261° (W) 2,082 7.1 -15.3°
Maximum altitude 18:36:45 85° 172° (S) 678 3.2 -16.3°
Enters shadow 18:39:16 29° 85° (E) 1,222 4.0 -16.8°
